World > North America > United States > Minnesota

Balaton, Minnesota Regional Weather

Lat: 44.23N, Lon: 95.87W
Wx Zone: MNZ072
Feedback

Balaton, MN Regional Weather

Expires:201908241800;;142998
ASUS43 KMPX 241710
RWRMN 
WEATHER ROUNDUP FOR MINNESOTA
NATIONAL WEATHER SERVICE TWIN CITIES/CHANHASSEN MN
1200 PM CDT SAT AUG 24 2019


NOTE: "FAIR" INDICATES FEW OR NO CLOUDS BELOW 12,000 FEET WITH NO
SIGNIFICANT WEATHER AND/OR OBSTRUCTIONS TO VISIBILITY. N/A MEANS
CURRENT SKY AND/OR WEATHER CONDITIONS ARE NOT AVAILABLE.


MNZ071>073-080-081-089-090-097-098-241800-
   Southwest Minnesota   
  
CITY           SKY/WX    TMP DP  RH WIND       PRES   REMARKS
MONTEVIDEO     SUNNY     72  55  56 S12G22    30.14F                  
GRANITE FALLS  SUNNY     74  58  58 SE15G23   30.16F                  
CANBY          SUNNY     76  61  59 E15G22    30.12F                  
MARSHALL       SUNNY     73  57  57 S22       30.14F                  
REDWOOD FALLS  SUNNY     74  57  55 S17       30.17F                  
OLIVIA         SUNNY     72  57  60 SE17      30.17F                  
PIPESTONE      SUNNY     72  61  68 S14G23    30.13F                  
WINDOM         SUNNY     70  55  60 SE17      30.17S                  
WORTHINGTON    SUNNY     70  55  59 SE18G25   30.16F                  
JACKSON        SUNNY     70  55  60 SE16      30.19F                  
TRACY          SUNNY     72  59  64 SE16G24   30.15F                  
$$

SKY/WX - Weather  TMP - Temperature  DP - Dew Point  RH - Relative Humidity
WIND - Wind Direction/Speed PRES - Barometric Pressure VSB - Visibility
WCI - Wind Chill Index E13G22 Wind - East Wind 13 mph/Gusts of 22 mph